Time,TemperatureF,DewpointF,PressureIn,WindDirection,WindDirectionDegrees,WindSpeedMPH,WindSpeedGustMPH,Humidity,HourlyPrecipIn,Conditions,Clouds,dailyrainin,SoftwareType,DateUTC
2013-06-11 00:06:00,70.0,68.0,29.87,WNW,288,0.0,0.0,94,0.00,,,0.00,weatherlink.com 1.10,2013-06-11 05:06:00,
2013-06-11 00:21:00,70.0,68.0,29.87,WNW,288,0.0,0.0,94,0.00,,,0.00,weatherlink.com 1.10,2013-06-11 05:21:00,
2013-06-11 00:36:00,70.1,69.0,29.87,WNW,288,0.0,0.0,95,0.00,,,0.00,weatherlink.com 1.10,2013-06-11 05:36:00,
2013-06-11 00:51:00,70.2,69.0,29.87,WNW,288,0.0,0.0,95,0.00,,,0.00,weatherlink.com 1.10,2013-06-11 05:51:00,
2013-06-11 01:06:00,70.3,69.0,29.88,WNW,292,0.0,0.0,95,0.00,,,0.00,weatherlink.com 1.10,2013-06-11 06:06:00,
2013-06-11 01:21:00,70.4,69.0,29.87,WNW,292,0.0,0.0,95,0.00,,,0.00,weatherlink.com 1.10,2013-06-11 06:21:00,
2013-06-11 01:36:00,70.5,69.0,29.87,WNW,292,0.0,0.0,95,0.00,,,0.00,weatherlink.com 1.10,2013-06-11 06:36:00,
2013-06-11 01:51:00,70.7,69.0,29.87,WNW,292,0.0,0.0,95,0.00,,,0.00,weatherlink.com 1.10,2013-06-11 06:51:00,
2013-06-11 02:06:00,70.9,70.0,29.87,WNW,292,0.0,0.0,95,0.00,,,0.00,weatherlink.com 1.10,2013-06-11 07:06:00,
2013-06-11 02:21:00,71.4,70.0,29.87,West,261,0.0,1.0,95,0.00,,,0.00,weatherlink.com 1.10,2013-06-11 07:21:00,
2013-06-11 02:36:00,71.9,71.0,29.86,WSW,242,0.0,1.0,95,0.00,,,0.00,weatherlink.com 1.10,2013-06-11 07:36:00,
2013-06-11 02:51:00,72.1,70.0,29.86,SE,144,1.0,1.0,94,0.00,,,0.00,weatherlink.com 1.10,2013-06-11 07:51:00,
2013-06-11 03:06:00,71.9,70.0,29.86,South,190,0.0,1.0,94,0.00,,,0.00,weatherlink.com 1.10,2013-06-11 08:06:00,
2013-06-11 03:21:00,71.7,70.0,29.86,SE,143,0.0,0.0,95,0.00,,,0.00,weatherlink.com 1.10,2013-06-11 08:21:00,
2013-06-11 03:36:00,71.6,70.0,29.87,SSE,163,0.0,0.0,95,0.00,,,0.00,weatherlink.com 1.10,2013-06-11 08:36:00,
2013-06-11 03:51:00,71.5,70.0,29.87,SSE,163,0.0,0.0,95,0.00,,,0.00,weatherlink.com 1.10,2013-06-11 08:51:00,
2013-06-11 04:06:00,71.5,70.0,29.87,SSE,163,0.0,0.0,95,0.00,,,0.00,weatherlink.com 1.10,2013-06-11 09:06:00,
2013-06-11 04:21:00,71.5,70.0,29.88,SSE,161,0.0,0.0,95,0.00,,,0.00,weatherlink.com 1.10,2013-06-11 09:21:00,
2013-06-11 04:36:00,71.6,70.0,29.88,SSW,194,0.0,0.0,96,0.00,,,0.00,weatherlink.com 1.10,2013-06-11 09:36:00,
2013-06-11 04:51:00,71.6,70.0,29.89,SSW,198,0.0,1.0,96,0.00,,,0.00,weatherlink.com 1.10,2013-06-11 09:51:00,
2013-06-11 05:06:00,71.6,70.0,29.89,SSW,198,0.0,0.0,96,0.00,,,0.00,weatherlink.com 1.10,2013-06-11 10:06:00,
2013-06-11 05:21:00,71.5,70.0,29.89,SSW,211,0.0,0.0,96,0.00,,,0.00,weatherlink.com 1.10,2013-06-11 10:21:00,
2013-06-11 05:36:00,71.5,70.0,29.90,SSW,209,0.0,1.0,96,0.00,,,0.00,weatherlink.com 1.10,2013-06-11 10:36:00,
2013-06-11 05:51:00,71.5,70.0,29.90,West,263,0.0,1.0,96,0.00,,,0.00,weatherlink.com 1.10,2013-06-11 10:51:00,
2013-06-11 06:06:00,71.5,70.0,29.91,West,261,0.0,0.0,96,0.00,,,0.00,weatherlink.com 1.10,2013-06-11 11:06:00,
2013-06-11 06:21:00,71.6,70.0,29.91,West,261,0.0,0.0,96,0.00,,,0.00,weatherlink.com 1.10,2013-06-11 11:21:00,
2013-06-11 06:36:00,71.7,71.0,29.91,West,261,0.0,1.0,96,0.00,,,0.00,weatherlink.com 1.10,2013-06-11 11:36:00,
2013-06-11 06:51:00,71.8,71.0,29.92,West,261,0.0,0.0,96,0.00,,,0.00,weatherlink.com 1.10,2013-06-11 11:51:00,
2013-06-11 07:06:00,72.0,71.0,29.92,West,259,0.0,0.0,96,0.00,,,0.00,weatherlink.com 1.10,2013-06-11 12:06:00,
2013-06-11 07:21:00,72.3,71.0,29.92,South,177,0.0,1.0,96,0.00,,,0.00,weatherlink.com 1.10,2013-06-11 12:21:00,
2013-06-11 07:37:00,72.6,71.0,29.92,SSW,204,0.0,0.0,96,0.00,,,0.00,weatherlink.com 1.10,2013-06-11 12:37:00,
2013-06-11 07:52:00,73.1,72.0,29.93,SSW,195,0.0,1.0,96,0.00,,,0.00,weatherlink.com 1.10,2013-06-11 12:52:00,
2013-06-11 08:07:00,73.9,72.0,29.93,South,180,0.0,0.0,94,0.00,,,0.00,weatherlink.com 1.10,2013-06-11 13:07:00,
2013-06-11 08:22:00,74.9,73.0,29.93,SSW,211,0.0,0.0,93,0.00,,,0.00,weatherlink.com 1.10,2013-06-11 13:22:00,
2013-06-11 08:37:00,76.1,73.0,29.93,SSE,156,0.0,1.0,91,0.00,,,0.00,weatherlink.com 1.10,2013-06-11 13:37:00,
2013-06-11 08:52:00,77.1,74.0,29.93,WSW,246,0.0,1.0,89,0.00,,,0.00,weatherlink.com 1.10,2013-06-11 13:52:00,
2013-06-11 09:07:00,78.2,74.0,29.93,NW,304,0.0,3.0,87,0.00,,,0.00,weatherlink.com 1.10,2013-06-11 14:07:00,
2013-06-11 09:22:00,79.0,74.0,29.93,WSW,247,3.0,5.0,84,0.00,,,0.00,weatherlink.com 1.10,2013-06-11 14:22:00,
2013-06-11 09:37:00,79.3,75.0,29.93,South,190,0.0,4.0,85,0.00,,,0.00,weatherlink.com 1.10,2013-06-11 14:37:00,
2013-06-11 09:52:00,79.8,74.0,29.93,WNW,290,1.0,3.0,82,0.00,,,0.00,weatherlink.com 1.10,2013-06-11 14:52:00,
2013-06-11 10:07:00,80.2,75.0,29.92,WNW,298,0.0,1.0,83,0.00,,,0.00,weatherlink.com 1.10,2013-06-11 15:07:00,
2013-06-11 10:22:00,80.6,75.0,29.92,WSW,242,0.0,3.0,82,0.00,,,0.00,weatherlink.com 1.10,2013-06-11 15:22:00,
2013-06-11 10:37:00,81.1,75.0,29.92,WSW,243,0.0,1.0,81,0.00,,,0.00,weatherlink.com 1.10,2013-06-11 15:37:00,
2013-06-11 10:52:00,81.6,76.0,29.92,West,281,0.0,0.0,83,0.00,,,0.00,weatherlink.com 1.10,2013-06-11 15:52:00,
2013-06-11 11:07:00,82.1,76.0,29.92,WNW,295,0.0,5.0,81,0.00,,,0.00,weatherlink.com 1.10,2013-06-11 16:07:00,
2013-06-11 11:22:00,82.8,75.0,29.92,NW,310,0.0,3.0,78,0.00,,,0.00,weatherlink.com 1.10,2013-06-11 16:22:00,
2013-06-11 11:37:00,83.9,75.0,29.92,NNW,346,5.0,5.0,75,0.00,,,0.00,weatherlink.com 1.10,2013-06-11 16:37:00,
2013-06-11 11:52:00,84.8,76.0,29.92,NE,55,1.0,5.0,74,0.00,,,0.00,weatherlink.com 1.10,2013-06-11 16:52:00,
2013-06-11 12:07:00,85.5,76.0,29.91,NW,322,0.0,8.0,73,0.00,,,0.00,weatherlink.com 1.10,2013-06-11 17:07:00,
2013-06-11 12:22:00,86.0,77.0,29.91,West,280,0.0,5.0,74,0.00,,,0.00,weatherlink.com 1.10,2013-06-11 17:22:00,
2013-06-11 12:37:00,87.3,77.0,29.91,NW,324,1.0,2.0,71,0.00,,,0.00,weatherlink.com 1.10,2013-06-11 17:37:00,
2013-06-11 12:52:00,88.0,76.0,29.90,WNW,285,0.0,8.0,67,0.00,,,0.00,weatherlink.com 1.10,2013-06-11 17:52:00,
2013-06-11 13:07:00,88.3,76.0,29.90,WNW,300,0.0,3.0,68,0.00,,,0.00,weatherlink.com 1.10,2013-06-11 18:07:00,
2013-06-11 13:22:00,88.8,76.0,29.89,SW,224,1.0,4.0,67,0.00,,,0.00,weatherlink.com 1.10,2013-06-11 18:22:00,
2013-06-11 13:38:00,88.9,76.0,29.89,North,5,1.0,6.0,66,0.00,,,0.00,weatherlink.com 1.10,2013-06-11 18:38:00,
2013-06-11 13:53:00,88.8,76.0,29.88,West,261,0.0,4.0,66,0.00,,,0.00,weatherlink.com 1.10,2013-06-11 18:53:00,
2013-06-11 14:08:00,88.7,76.0,29.88,WSW,246,0.0,3.0,66,0.00,,,0.00,weatherlink.com 1.10,2013-06-11 19:08:00,
2013-06-11 14:23:00,89.0,75.0,29.88,WSW,251,1.0,5.0,63,0.00,,,0.00,weatherlink.com 1.10,2013-06-11 19:23:00,
2013-06-11 14:38:00,88.6,76.0,29.87,WSW,242,0.0,3.0,67,0.00,,,0.00,weatherlink.com 1.10,2013-06-11 19:38:00,
2013-06-11 14:53:00,88.2,75.0,29.87,NNW,342,0.0,4.0,65,0.00,,,0.00,weatherlink.com 1.10,2013-06-11 19:53:00,
2013-06-11 15:08:00,88.2,76.0,29.87,NNW,331,0.0,3.0,68,0.00,,,0.00,weatherlink.com 1.10,2013-06-11 20:08:00,
2013-06-11 15:23:00,88.6,75.0,29.86,WSW,242,0.0,4.0,65,0.00,,,0.00,weatherlink.com 1.10,2013-06-11 20:23:00,
2013-06-11 15:38:00,89.4,76.0,29.86,SW,226,0.0,2.0,65,0.00,,,0.00,weatherlink.com 1.10,2013-06-11 20:38:00,
2013-06-11 15:53:00,89.1,75.0,29.86,WSW,252,0.0,1.0,64,0.00,,,0.00,weatherlink.com 1.10,2013-06-11 20:53:00,
2013-06-11 16:08:00,89.3,77.0,29.86,SW,234,0.0,2.0,66,0.00,,,0.00,weatherlink.com 1.10,2013-06-11 21:08:00,
2013-06-11 16:23:00,88.8,76.0,29.86,West,278,0.0,1.0,65,0.00,,,0.00,weatherlink.com 1.10,2013-06-11 21:23:00,
2013-06-11 16:38:00,88.2,75.0,29.86,WSW,240,0.0,1.0,65,0.00,,,0.00,weatherlink.com 1.10,2013-06-11 21:38:00,
2013-06-11 16:53:00,88.1,77.0,29.85,NNW,348,0.0,3.0,70,0.00,,,0.00,weatherlink.com 1.10,2013-06-11 21:53:00,
2013-06-11 17:08:00,88.0,77.0,29.85,NNW,336,0.0,1.0,70,0.00,,,0.00,weatherlink.com 1.10,2013-06-11 22:08:00,
2013-06-11 17:23:00,87.6,76.0,29.85,NNW,339,0.0,1.0,68,0.00,,,0.00,weatherlink.com 1.10,2013-06-11 22:23:00,
2013-06-11 17:38:00,86.9,77.0,29.85,NNW,329,0.0,1.0,73,0.00,,,0.00,weatherlink.com 1.10,2013-06-11 22:38:00,
2013-06-11 17:53:00,85.8,76.0,29.85,West,280,0.0,0.0,73,0.00,,,0.00,weatherlink.com 1.10,2013-06-11 22:53:00,
2013-06-11 18:08:00,86.0,76.0,29.84,WSW,241,0.0,1.0,73,0.00,,,0.00,weatherlink.com 1.10,2013-06-11 23:08:00,
2013-06-11 18:23:00,85.6,76.0,29.85,WSW,241,0.0,0.0,74,0.00,,,0.00,weatherlink.com 1.10,2013-06-11 23:23:00,
2013-06-11 18:38:00,84.3,77.0,29.85,WSW,241,0.0,0.0,78,0.00,,,0.00,weatherlink.com 1.10,2013-06-11 23:38:00,
2013-06-11 18:53:00,83.2,77.0,29.85,WSW,241,0.0,0.0,81,0.00,,,0.00,weatherlink.com 1.10,2013-06-11 23:53:00,
2013-06-11 19:08:00,82.9,77.0,29.85,WSW,241,0.0,0.0,81,0.00,,,0.00,weatherlink.com 1.10,2013-06-12 00:08:00,
2013-06-11 19:23:00,81.7,77.0,29.86,WSW,241,0.0,0.0,84,0.00,,,0.00,weatherlink.com 1.10,2013-06-12 00:23:00,
2013-06-11 19:38:00,80.6,76.0,29.86,WSW,241,0.0,0.0,85,0.00,,,0.00,weatherlink.com 1.10,2013-06-12 00:38:00,
2013-06-11 19:53:00,79.8,75.0,29.86,WSW,241,0.0,0.0,86,0.00,,,0.00,weatherlink.com 1.10,2013-06-12 00:53:00,
2013-06-11 20:08:00,79.2,75.0,29.86,WSW,241,0.0,0.0,86,0.00,,,0.00,weatherlink.com 1.10,2013-06-12 01:08:00,
2013-06-11 20:23:00,78.7,75.0,29.86,WSW,241,0.0,0.0,87,0.00,,,0.00,weatherlink.com 1.10,2013-06-12 01:23:00,
2013-06-11 20:38:00,78.1,74.0,29.86,WSW,241,0.0,0.0,88,0.00,,,0.00,weatherlink.com 1.10,2013-06-12 01:38:00,
2013-06-11 20:53:00,77.5,74.0,29.87,WSW,241,0.0,0.0,88,0.00,,,0.00,weatherlink.com 1.10,2013-06-12 01:53:00,
2013-06-11 21:08:00,76.9,74.0,29.87,WSW,241,0.0,0.0,89,0.00,,,0.00,weatherlink.com 1.10,2013-06-12 02:08:00,
2013-06-11 21:23:00,76.4,73.0,29.88,WSW,241,0.0,0.0,90,0.00,,,0.00,weatherlink.com 1.10,2013-06-12 02:23:00,
2013-06-11 21:38:00,76.0,73.0,29.89,WSW,241,0.0,0.0,91,0.00,,,0.00,weatherlink.com 1.10,2013-06-12 02:38:00,
2013-06-11 21:53:00,75.7,73.0,29.90,WSW,241,0.0,0.0,91,0.00,,,0.00,weatherlink.com 1.10,2013-06-12 02:53:00,
2013-06-11 22:08:00,75.3,73.0,29.90,WSW,241,0.0,0.0,92,0.00,,,0.00,weatherlink.com 1.10,2013-06-12 03:08:00,
2013-06-11 22:23:00,74.9,73.0,29.90,WSW,241,0.0,0.0,92,0.00,,,0.00,weatherlink.com 1.10,2013-06-12 03:23:00,
2013-06-11 22:38:00,74.7,73.0,29.90,WSW,241,0.0,0.0,93,0.00,,,0.00,weatherlink.com 1.10,2013-06-12 03:38:00,
2013-06-11 22:53:00,74.3,72.0,29.90,WSW,241,0.0,0.0,93,0.00,,,0.00,weatherlink.com 1.10,2013-06-12 03:53:00,
2013-06-11 23:08:00,74.1,72.0,29.90,WSW,241,0.0,0.0,93,0.00,,,0.00,weatherlink.com 1.10,2013-06-12 04:08:00,
2013-06-11 23:23:00,73.9,72.0,29.90,WSW,241,0.0,0.0,93,0.00,,,0.00,weatherlink.com 1.10,2013-06-12 04:23:00,
2013-06-11 23:38:00,73.6,72.0,29.91,WSW,241,0.0,0.0,94,0.00,,,0.00,weatherlink.com 1.10,2013-06-12 04:38:00,
2013-06-11 23:53:00,73.2,71.0,29.91,WSW,241,0.0,0.0,93,0.00,,,0.00,weatherlink.com 1.10,2013-06-12 04:53:00,